| time (UTC) | temp C | wind direction | speed KPH | gust KPH | rain 1hr cm | rain 24hr cm | rain mn cm | humidity % | barometer mb |
| 20260506010150 | 18 | 203 | 4.8 | 9.7 | 0.00 | 0.00 | 0.00 | 65 | 1010.3 |
| 20260506003149 | 18 | 222 | 9.7 | 27.4 | 0.00 | 0.00 | 0.00 | 63 | 1010.0 |
| 20260506000150 | 18 | 219 | 8.0 | 29.0 | 0.00 | 0.00 | 0.00 | 61 | 1009.6 |
| 20260505230150 | 20 | 221 | 6.4 | 24.1 | 0.00 | 0.00 | 0.00 | 58 | 1008.9 |
| 20260505220150 | 21 | 210 | 6.4 | 22.5 | 0.00 | 0.00 | 0.00 | 56 | 1008.9 |
| 20260505210150 | 22 | 210 | 8.0 | 16.1 | 0.00 | 0.00 | 0.00 | 53 | 1008.8 |
| 20260505200150 | 22 | 213 | 9.7 | 29.0 | 0.00 | 0.00 | 0.00 | 53 | 1009.0 |
| 20260505190152 | 23 | 198 | 8.0 | 29.0 | 0.00 | 0.00 | 0.00 | 50 | 1009.4 |
| 20260505180151 | 23 | 204 | 9.7 | 27.4 | 0.00 | 0.00 | 0.00 | 49 | 1009.5 |
| 20260505170150 | 23 | 208 | 8.0 | 22.5 | 0.00 | 0.00 | 0.00 | 52 | 1010.0 |
| 20260505150151 | 20 | 207 | 8.0 | 19.3 | 0.00 | 0.00 | 0.00 | 60 | 1011.7 |
| 20260505120150 | 13 | 202 | 4.8 | 12.9 | 0.00 | 0.00 | 0.00 | 86 | 1011.9 |
| 20260505100150 | 11 | 192 | 0.0 | 3.2 | 0.00 | 0.00 | 0.00 | 92 | 1010.8 |
| 20260505090151 | 11 | 210 | 0.0 | 3.2 | 0.00 | 0.00 | 0.00 | 91 | 1010.7 |
| 20260505080150 | 11 | 191 | 0.0 | 0.0 | 0.00 | 0.00 | 0.00 | 88 | 1010.8 |
| 20260505070150 | 11 | 191 | 0.0 | 3.2 | 0.00 | 0.00 | 0.00 | 86 | 1011.0 |
| 20260505060152 | 11 | 194 | 1.6 | 4.8 | 0.00 | 0.00 | 0.00 | 83 | 1011.2 |
| 20260505050149 | 12 | 196 | 0.0 | 3.2 | 0.00 | 0.00 | 0.00 | 80 | 1011.5 |
| 20260505033149 | 12 | 204 | 1.6 | 4.8 | 0.00 | 0.00 | 0.00 | 77 | 1011.6 |
| 20260505030150 | 12 | 203 | 1.6 | 4.8 | 0.00 | 0.00 | 0.00 | 76 | 1011.5 |